Retour au catalogue

CZ-6A DEB

ActifPO
NORAD 64651·DEBRIS·🇨🇳 China

Lancé Aug 6, 2024 depuis Taiyuan Satellite Launch Center

Loading…

Prochains Passages (prochaines 24 heures)

TLE

FraisSource: Space-Track

Époque: Sep 14, 2026, 07:49 UTC

1 64651U 24140AER 26257.32616242  .00001677  00000-0  83294-3 0  9991
2 64651  88.3510 207.3677 0075963 279.5014  79.7593 14.15181823 99630

Suivez CZ-6A DEB en temps réel avec AllMySat

Download on the App Store